,,Stat6,,Stat2,,Stat8,,Stat9,,Stat10,,Wind1,,Wind1,
time,status,PA1M_AVG,status,PR1M_SUM,status,RH1M_AVG,status,SR1M_AVG,status,TA1M_AVG,status,W1dAve1m,status,W1sAve1m,
2008-08-11, 00:00:00,VALID,917.294,VALID,0,VALID,100,VALID,0,VALID,20.2145,VALID,151,VALID,0.722049,
2008-08-11, 00:01:00,VALID,917.313,VALID,0,VALID,100,VALID,-0.0169808,VALID,20.2245,VALID,146,VALID,0.562128,
2008-08-11, 00:02:00,VALID,917.33,VALID,0,VALID,100,VALID,-0.0339617,VALID,20.2142,VALID,135,VALID,1.44622,
2008-08-11, 00:03:00,VALID,917.354,VALID,0,VALID,100,VALID,-0.0169808,VALID,20.221,VALID,167,VALID,1.59448,
2008-08-11, 00:04:00,VALID,917.356,VALID,0,VALID,100,VALID,-0.0169808,VALID,20.2207,VALID,167,VALID,1.12891,
2008-08-11, 00:05:00,VALID,917.37,VALID,0,VALID,100,VALID,-0.0509425,VALID,20.2344,VALID,150,VALID,1.17467,
2008-08-11, 00:06:00,VALID,917.393,VALID,0,VALID,100,VALID,-0.101885,VALID,20.2514,VALID,156,VALID,1.10996,
2008-08-11, 00:07:00,VALID,917.397,VALID,0,VALID,100,VALID,-0.101885,VALID,20.2417,VALID,165,VALID,1.03498,
2008-08-11, 00:08:00,VALID,917.409,VALID,0,VALID,100,VALID,-0.118866,VALID,20.2347,VALID,158,VALID,1.14143,
2008-08-11, 00:09:00,VALID,917.401,VALID,0,VALID,100,VALID,-0.135847,VALID,20.2414,VALID,167,VALID,1.10138,
2008-08-11, 00:10:00,VALID,917.373,VALID,0,VALID,100,VALID,-0.118866,VALID,20.2549,VALID,175,VALID,1.4269,
2008-08-11, 00:11:00,VALID,917.356,VALID,0,VALID,100,VALID,-0.101885,VALID,20.2449,VALID,168,VALID,1.42986,
2008-08-11, 00:12:00,VALID,917.318,VALID,0,VALID,100,VALID,-0.101885,VALID,20.2482,VALID,171,VALID,1.14118,
2008-08-11, 00:13:00,VALID,917.298,VALID,0,VALID,100,VALID,-0.101885,VALID,20.232,VALID,158,VALID,1.45278,
2008-08-11, 00:14:00,VALID,917.277,VALID,0,VALID,100,VALID,-0.118866,VALID,20.229,VALID,167,VALID,1.62066,
2008-08-11, 00:15:00,VALID,917.266,VALID,0,VALID,100,VALID,-0.135847,VALID,20.2322,VALID,159,VALID,1.501,
2008-08-11, 00:16:00,VALID,917.26,VALID,0,VALID,100,VALID,-0.118866,VALID,20.2155,VALID,163,VALID,1.57903,
2008-08-11, 00:17:00,VALID,917.258,VALID,0,VALID,100,VALID,-0.118866,VALID,20.216,VALID,168,VALID,1.29929,
2008-08-11, 00:18:00,VALID,917.24,VALID,0,VALID,100,VALID,-0.101885,VALID,20.2125,VALID,153,VALID,1.62422,
2008-08-11, 00:19:00,VALID,917.217,VALID,0,VALID,100,VALID,-0.101885,VALID,20.2063,VALID,159,VALID,1.39698,
2008-08-11, 00:20:00,VALID,917.193,VALID,0,VALID,100,VALID,-0.0509425,VALID,20.1923,VALID,149,VALID,1.26505,
2008-08-11, 00:21:00,VALID,917.173,VALID,0,VALID,100,VALID,-0.0339617,VALID,20.2017,VALID,149,VALID,1.47852,
2008-08-11, 00:22:00,VALID,917.15,VALID,0,VALID,100,VALID,0,VALID,20.1947,VALID,136,VALID,0.564317,
2008-08-11, 00:23:00,VALID,917.117,VALID,0,VALID,100,VALID,-0.0339617,VALID,20.1748,VALID,150,VALID,0.953683,
2008-08-11, 00:24:00,VALID,917.1,VALID,0,VALID,100,VALID,0,VALID,20.1855,VALID,139,VALID,1.01599,
2008-08-11, 00:25:00,VALID,917.052,VALID,0,VALID,100,VALID,0,VALID,20.1818,VALID,127,VALID,0.39974,
2008-08-11, 00:26:00,VALID,917.005,VALID,0,VALID,100,VALID,0,VALID,20.1845,VALID,132,VALID,0.46684,
2008-08-11, 00:27:00,VALID,916.964,VALID,0,VALID,100,VALID,0,VALID,20.1915,VALID,144,VALID,0.440476,
2008-08-11, 00:28:00,VALID,916.932,VALID,0,VALID,100,VALID,-0.0509425,VALID,20.1885,VALID,151,VALID,0,
2008-08-11, 00:29:00,VALID,916.895,VALID,0,VALID,100,VALID,0,VALID,20.1947,VALID,186,VALID,0,
2008-08-11, 00:30:00,VALID,916.883,VALID,0,VALID,100,VALID,0,VALID,20.1915,VALID,187,VALID,0,
2008-08-11, 00:31:00,VALID,916.863,VALID,0,VALID,100,VALID,-0.0169808,VALID,20.1952,VALID,187,VALID,0,
2008-08-11, 00:32:00,VALID,916.847,VALID,0,VALID,100,VALID,-0.0169808,VALID,20.192,VALID,173,VALID,0,
2008-08-11, 00:33:00,VALID,916.865,VALID,0,VALID,100,VALID,-0.0169808,VALID,20.1823,VALID,143,VALID,0,
2008-08-11, 00:34:00,VALID,916.875,VALID,0,VALID,100,VALID,-0.0339617,VALID,20.159,VALID,130,VALID,0,
2008-08-11, 00:35:00,VALID,916.9,VALID,0,VALID,100,VALID,-0.0509425,VALID,20.1593,VALID,121,VALID,0.00254755,
2008-08-11, 00:36:00,VALID,916.91,VALID,0,VALID,100,VALID,-0.0509425,VALID,20.1496,VALID,119,VALID,0.355183,
2008-08-11, 00:37:00,VALID,916.905,VALID,0,VALID,100,VALID,-0.0339617,VALID,20.1366,VALID,120,VALID,0.962109,
2008-08-11, 00:38:00,VALID,916.879,VALID,0,VALID,100,VALID,-0.0679233,VALID,20.1366,VALID,126,VALID,0.0725446,
2008-08-11, 00:39:00,VALID,916.854,VALID,0,VALID,100,VALID,-0.0169808,VALID,20.1228,VALID,132,VALID,0.00996094,
2008-08-11, 00:40:00,VALID,916.796,VALID,0,VALID,100,VALID,-0.0509425,VALID,20.1374,VALID,137,VALID,1.16178,
2008-08-11, 00:41:00,VALID,916.74,VALID,0,VALID,100,VALID,-0.0509425,VALID,20.1438,VALID,144,VALID,1.12292,
2008-08-11, 00:42:00,VALID,916.693,VALID,0,VALID,100,VALID,-0.0169808,VALID,20.1241,VALID,157,VALID,1.17543,
2008-08-11, 00:43:00,VALID,916.625,VALID,0,VALID,100,VALID,-0.0509425,VALID,20.0917,VALID,153,VALID,1.56765,
2008-08-11, 00:44:00,VALID,916.571,VALID,0,VALID,100,VALID,-0.0169808,VALID,20.0457,VALID,150,VALID,1.70182,
2008-08-11, 00:45:00,VALID,916.525,VALID,0,VALID,100,VALID,-0.0169808,VALID,20.0357,VALID,168,VALID,1.6291,
2008-08-11, 00:46:00,VALID,916.484,VALID,0,VALID,100,VALID,-0.0339617,VALID,20.0355,VALID,154,VALID,1.04611,
2008-08-11, 00:47:00,VALID,916.426,VALID,0,VALID,100,VALID,-0.0849042,VALID,20.046,VALID,169,VALID,1.03802,
2008-08-11, 00:48:00,VALID,916.379,VALID,0,VALID,100,VALID,-0.0169808,VALID,20.0557,VALID,170,VALID,0.954942,
2008-08-11, 00:49:00,VALID,916.33,VALID,0,VALID,100,VALID,-0.0339617,VALID,20.0592,VALID,148,VALID,1.48609,
2008-08-11, 00:50:00,VALID,916.307,VALID,0,VALID,100,VALID,-0.0169808,VALID,20.052,VALID,166,VALID,0.735491,
2008-08-11, 00:51:00,VALID,916.27,VALID,0,VALID,100,VALID,-0.0169808,VALID,20.0547,VALID,168,VALID,0.0025436,
2008-08-11, 00:52:00,VALID,916.24,VALID,0,VALID,100,VALID,-0.0169808,VALID,20.0612,VALID,187,VALID,0.139535,
2008-08-11, 00:53:00,VALID,916.208,VALID,0,VALID,100,VALID,-0.0339617,VALID,20.045,VALID,191,VALID,1.01753,
2008-08-11, 00:54:00,VALID,916.178,VALID,0,VALID,100,VALID,-0.0169808,VALID,20.029,VALID,183,VALID,0.99272,
2008-08-11, 00:55:00,VALID,916.164,VALID,0,VALID,100,VALID,-0.0169808,VALID,19.9931,VALID,159,VALID,1.5798,
2008-08-11, 00:56:00,VALID,916.119,VALID,0,VALID,100,VALID,0,VALID,19.9639,VALID,167,VALID,1.49911,
2008-08-11, 00:57:00,VALID,916.106,VALID,0,VALID,100,VALID,0,VALID,19.9584,VALID,176,VALID,1.03244,
2008-08-11, 00:58:00,VALID,916.074,VALID,0.2,VALID,100,VALID,-0.0339617,VALID,19.9481,VALID,173,VALID,1.60156,
2008-08-11, 00:59:00,VALID,916.046,VALID,0,VALID,100,VALID,0,VALID,19.9449,VALID,159,VALID,0.765253,
2008-08-11, 01:00:00,VALID,916.053,VALID,0,VALID,100,VALID,-0.0169808,VALID,19.9414,VALID,178,VALID,0.466332,
2008-08-11, 01:01:00,VALID,916.07,VALID,0,VALID,100,VALID,-0.0169808,VALID,19.9379,VALID,162,VALID,0.918155,
2008-08-11, 01:02:00,VALID,916.085,VALID,0,VALID,100,VALID,0,VALID,19.9152,VALID,121,VALID,0.984933,
2008-08-11, 01:03:00,VALID,916.091,VALID,0,VALID,100,VALID,0,VALID,19.902,VALID,106,VALID,1.85352,
2008-08-11, 01:04:00,VALID,916.114,VALID,0,VALID,100,VALID,0,VALID,19.8925,VALID,85,VALID,1.84908,
2008-08-11, 01:05:00,VALID,916.149,VALID,0,VALID,100,VALID,0,VALID,19.8867,VALID,94,VALID,2.04106,
2008-08-11, 01:06:00,VALID,916.162,VALID,0,VALID,100,VALID,0,VALID,19.8763,VALID,87,VALID,1.9623,
2008-08-11, 01:07:00,VALID,916.178,VALID,0,VALID,100,VALID,0,VALID,19.8763,VALID,69,VALID,1.90574,
2008-08-11, 01:08:00,VALID,916.149,VALID,0,VALID,100,VALID,0,VALID,19.896,VALID,48,VALID,1.8724,
2008-08-11, 01:09:00,VALID,916.138,VALID,0,VALID,100,VALID,0,VALID,19.893,VALID,58,VALID,2.18278,
2008-08-11, 01:10:00,VALID,916.113,VALID,0,VALID,100,VALID,-0.0169808,VALID,19.8735,VALID,74,VALID,2.41834,
2008-08-11, 01:11:00,VALID,916.09,VALID,0,VALID,100,VALID,-0.0509425,VALID,19.8573,VALID,59,VALID,2.07422,
2008-08-11, 01:12:00,VALID,916.072,VALID,0,VALID,100,VALID,-0.0339617,VALID,19.854,VALID,71,VALID,1.77361,
2008-08-11, 01:13:00,VALID,916.053,VALID,0,VALID,100,VALID,-0.0169808,VALID,19.8446,VALID,92,VALID,1.2301,
2008-08-11, 01:14:00,VALID,916.032,VALID,0,VALID,100,VALID,-0.0169808,VALID,19.8348,VALID,86,VALID,1.20945,
2008-08-11, 01:15:00,VALID,916.003,VALID,0,VALID,100,VALID,-0.0339617,VALID,19.8378,VALID,57,VALID,1.234,
2008-08-11, 01:16:00,VALID,915.978,VALID,0,VALID,100,VALID,-0.0679233,VALID,19.8378,VALID,94,VALID,0.697181,
2008-08-11, 01:17:00,VALID,915.951,VALID,0,VALID,100,VALID,-0.0339617,VALID,19.8216,VALID,88,VALID,0.801067,
2008-08-11, 01:18:00,VALID,915.92,VALID,0,VALID,100,VALID,0,VALID,19.8149,VALID,104,VALID,0.020419,
2008-08-11, 01:19:00,VALID,915.881,VALID,0,VALID,100,VALID,-0.0339617,VALID,19.8186,VALID,128,VALID,0.855374,
2008-08-11, 01:20:00,VALID,915.83,VALID,0,VALID,100,VALID,-0.0169808,VALID,19.8218,VALID,154,VALID,0.984756,
2008-08-11, 01:21:00,VALID,915.798,VALID,0,VALID,100,VALID,0,VALID,19.8311,VALID,152,VALID,0.957126,
2008-08-11, 01:22:00,VALID,915.768,VALID,0,VALID,100,VALID,-0.0339617,VALID,19.8408,VALID,161,VALID,0.925195,
2008-08-11, 01:23:00,VALID,915.74,VALID,0,VALID,100,VALID,-0.0169808,VALID,19.8505,VALID,157,VALID,0.502539,
2008-08-11, 01:24:00,VALID,915.706,VALID,0,VALID,100,VALID,-0.0169808,VALID,19.8535,VALID,151,VALID,1.13139,
2008-08-11, 01:25:00,VALID,915.68,VALID,0,VALID,100,VALID,-0.0169808,VALID,19.86,VALID,158,VALID,1.32813,
2008-08-11, 01:26:00,VALID,915.656,VALID,0,VALID,100,VALID,-0.0509425,VALID,19.867,VALID,142,VALID,0.755716,
2008-08-11, 01:27:00,VALID,915.648,VALID,0,VALID,100,VALID,-0.0169808,VALID,19.8406,VALID,124,VALID,0.937872,
2008-08-11, 01:28:00,VALID,915.64,VALID,0,VALID,100,VALID,-0.0169808,VALID,19.8114,VALID,126,VALID,1.43574,
2008-08-11, 01:29:00,VALID,915.653,VALID,0,VALID,100,VALID,0.0169808,VALID,19.7887,VALID,117,VALID,1.02725,
2008-08-11, 01:30:00,VALID,915.655,VALID,0,VALID,100,VALID,0,VALID,19.7595,VALID,115,VALID,1.15086,
2008-08-11, 01:31:00,VALID,915.646,VALID,0,VALID,100,VALID,0,VALID,19.7465,VALID,115,VALID,1.11772,
2008-08-11, 01:32:00,VALID,915.65,VALID,0,VALID,100,VALID,-0.0509425,VALID,19.7435,VALID,137,VALID,1.38982,
2008-08-11, 01:33:00,VALID,915.668,VALID,0,VALID,100,VALID,0,VALID,19.737,VALID,143,VALID,1.55504,
2008-08-11, 01:34:00,VALID,915.669,VALID,0,VALID,100,VALID,-0.0169808,VALID,19.75,VALID,109,VALID,1.05433,
2008-08-11, 01:35:00,VALID,915.656,VALID,0,VALID,100,VALID,-0.0509425,VALID,19.7535,VALID,146,VALID,0.410056,
2008-08-11, 01:36:00,VALID,915.683,VALID,0,VALID,100,VALID,-0.0679233,VALID,19.7507,VALID,157,VALID,0.495908,
2008-08-11, 01:37:00,VALID,915.707,VALID,0,VALID,100,VALID,-0.0849042,VALID,19.747,VALID,166,VALID,0.600472,
2008-08-11, 01:38:00,VALID,915.746,VALID,0,VALID,100,VALID,-0.101885,VALID,19.7507,VALID,190,VALID,0.315549,
2008-08-11, 01:39:00,VALID,915.755,VALID,0,VALID,100,VALID,-0.0679233,VALID,19.7505,VALID,165,VALID,0.779297,
2008-08-11, 01:40:00,VALID,915.798,VALID,0,VALID,100,VALID,-0.0679233,VALID,19.7405,VALID,155,VALID,0.739955,
2008-08-11, 01:41:00,VALID,915.825,VALID,0,VALID,100,VALID,-0.101885,VALID,19.744,VALID,160,VALID,0,
2008-08-11, 01:42:00,VALID,915.838,VALID,0,VALID,100,VALID,-0.0849042,VALID,19.744,VALID,157,VALID,0,
2008-08-11, 01:43:00,VALID,915.856,VALID,0,VALID,100,VALID,-0.0849042,VALID,19.7407,VALID,83,VALID,0.21189,
2008-08-11, 01:44:00,VALID,915.864,VALID,0,VALID,100,VALID,-0.0849042,VALID,19.7275,VALID,43,VALID,0.454688,
2008-08-11, 01:45:00,VALID,915.859,VALID,0,VALID,100,VALID,-0.0509425,VALID,19.7278,VALID,19,VALID,0,
2008-08-11, 01:46:00,VALID,915.847,VALID,0,VALID,100,VALID,-0.0679233,VALID,19.7308,VALID,19,VALID,0,
2008-08-11, 01:47:00,VALID,915.824,VALID,0,VALID,100,VALID,-0.0679233,VALID,19.7275,VALID,19,VALID,0,
2008-08-11, 01:48:00,VALID,915.786,VALID,0,VALID,100,VALID,-0.0679233,VALID,19.7178,VALID,19,VALID,0,
2008-08-11, 01:49:00,VALID,915.761,VALID,0,VALID,100,VALID,-0.0169808,VALID,19.7243,VALID,101,VALID,0.0717014,
2008-08-11, 01:50:00,VALID,915.729,VALID,0,VALID,100,VALID,-0.0509425,VALID,19.7178,VALID,169,VALID,0,
2008-08-11, 01:51:00,VALID,915.721,VALID,0,VALID,100,VALID,-0.0509425,VALID,19.6981,VALID,172,VALID,0.346112,
2008-08-11, 01:52:00,VALID,915.706,VALID,0,VALID,100,VALID,-0.0509425,VALID,19.6851,VALID,166,VALID,0.39444,
2008-08-11, 01:53:00,VALID,915.682,VALID,0,VALID,100,VALID,-0.0679233,VALID,19.6783,VALID,166,VALID,0,
2008-08-11, 01:54:00,VALID,915.651,VALID,0,VALID,100,VALID,-0.0679233,VALID,19.6758,VALID,148,VALID,0,
2008-08-11, 01:55:00,VALID,915.609,VALID,0,VALID,100,VALID,-0.0849042,VALID,19.6691,VALID,150,VALID,0.499645,
2008-08-11, 01:56:00,VALID,915.588,VALID,0,VALID,100,VALID,-0.0509425,VALID,19.6591,VALID,133,VALID,0.781783,
2008-08-11, 01:57:00,VALID,915.574,VALID,0,VALID,100,VALID,-0.101885,VALID,19.6629,VALID,133,VALID,0.217634,
2008-08-11, 01:58:00,VALID,915.572,VALID,0,VALID,100,VALID,-0.0509425,VALID,19.6531,VALID,123,VALID,0,
2008-08-11, 01:59:00,VALID,915.572,VALID,0,VALID,100,VALID,-0.101885,VALID,19.6464,VALID,120,VALID,0,
2008-08-11, 02:00:00,VALID,915.592,VALID,0,VALID,100,VALID,-0.0679233,VALID,19.6364,VALID,113,VALID,0.00114329,
2008-08-11, 02:01:00,VALID,915.602,VALID,0,VALID,100,VALID,-0.0849042,VALID,19.6269,VALID,115,VALID,0.275746,
2008-08-11, 02:02:00,VALID,915.614,VALID,0,VALID,100,VALID,-0.0339617,VALID,19.6035,VALID,115,VALID,0.776843,
2008-08-11, 02:03:00,VALID,915.624,VALID,0,VALID,100,VALID,-0.0849042,VALID,19.5945,VALID,104,VALID,0.948864,
2008-08-11, 02:04:00,VALID,915.599,VALID,0,VALID,100,VALID,-0.0509425,VALID,19.5945,VALID,119,VALID,0.771439,
2008-08-11, 02:05:00,VALID,915.611,VALID,0,VALID,100,VALID,-0.0509425,VALID,19.5843,VALID,127,VALID,1.03733,
2008-08-11, 02:06:00,VALID,915.598,VALID,0,VALID,100,VALID,-0.0679233,VALID,19.5813,VALID,143,VALID,0.942769,
2008-08-11, 02:07:00,VALID,915.6,VALID,0,VALID,100,VALID,-0.0679233,VALID,19.5748,VALID,150,VALID,1.0089,
2008-08-11, 02:08:00,VALID,915.6,VALID,0,VALID,100,VALID,-0.101885,VALID,19.5915,VALID,147,VALID,0.742361,
2008-08-11, 02:09:00,VALID,915.579,VALID,0,VALID,100,VALID,-0.0509425,VALID,19.591,VALID,159,VALID,0.947351,
2008-08-11, 02:10:00,VALID,915.572,VALID,0,VALID,100,VALID,-0.0509425,VALID,19.5975,VALID,158,VALID,1.0783,
2008-08-11, 02:11:00,VALID,915.551,VALID,0,VALID,100,VALID,-0.0849042,VALID,19.6005,VALID,158,VALID,0.922461,
2008-08-11, 02:12:00,VALID,915.539,VALID,0,VALID,100,VALID,-0.101885,VALID,19.5945,VALID,171,VALID,1.07541,
2008-08-11, 02:13:00,VALID,915.543,VALID,0,VALID,100,VALID,-0.0339617,VALID,19.6007,VALID,169,VALID,1.30923,
2008-08-11, 02:14:00,VALID,915.55,VALID,0,VALID,100,VALID,-0.0679233,VALID,19.6075,VALID,176,VALID,1.18146,
2008-08-11, 02:15:00,VALID,915.554,VALID,0,VALID,100,VALID,-0.0169808,VALID,19.604,VALID,175,VALID,1.20833,
2008-08-11, 02:16:00,VALID,915.559,VALID,0,VALID,100,VALID,-0.0169808,VALID,19.6037,VALID,169,VALID,1.38177,
2008-08-11, 02:17:00,VALID,915.57,VALID,0,VALID,100,VALID,-0.0509425,VALID,19.6037,VALID,166,VALID,0.851563,
2008-08-11, 02:18:00,VALID,915.581,VALID,0,VALID,100,VALID,-0.0169808,VALID,19.6102,VALID,176,VALID,0.964753,
2008-08-11, 02:19:00,VALID,915.584,VALID,0,VALID,100,VALID,-0.0679233,VALID,19.6202,VALID,170,VALID,0.925071,
2008-08-11, 02:20:00,VALID,915.592,VALID,0,VALID,100,VALID,-0.0679233,VALID,19.6199,VALID,172,VALID,1.01181,
2008-08-11, 02:21:00,VALID,915.596,VALID,0,VALID,100,VALID,-0.0339617,VALID,19.6137,VALID,168,VALID,0.731898,
2008-08-11, 02:22:00,VALID,915.611,VALID,0,VALID,100,VALID,-0.0679233,VALID,19.6135,VALID,169,VALID,1.29545,
2008-08-11, 02:23:00,VALID,915.613,VALID,0,VALID,100,VALID,-0.0339617,VALID,19.6135,VALID,165,VALID,0.790625,
2008-08-11, 02:24:00,VALID,915.617,VALID,0,VALID,100,VALID,-0.0169808,VALID,19.6199,VALID,159,VALID,1.28161,
2008-08-11, 02:25:00,VALID,915.648,VALID,0.2,VALID,100,VALID,-0.0509425,VALID,19.6162,VALID,149,VALID,1.12009,
2008-08-11, 02:26:00,VALID,915.635,VALID,0,VALID,100,VALID,-0.0339617,VALID,19.6264,VALID,136,VALID,1.03813,
2008-08-11, 02:27:00,VALID,915.65,VALID,0,VALID,100,VALID,-0.101885,VALID,19.6334,VALID,130,VALID,0.840298,
2008-08-11, 02:28:00,VALID,915.647,VALID,0,VALID,100,VALID,-0.0679233,VALID,19.6267,VALID,135,VALID,1.02871,
2008-08-11, 02:29:00,VALID,915.642,VALID,0,VALID,100,VALID,-0.0339617,VALID,19.6364,VALID,130,VALID,0.937309,
2008-08-11, 02:30:00,VALID,915.636,VALID,0,VALID,100,VALID,-0.0339617,VALID,19.6397,VALID,145,VALID,0.796317,
2008-08-11, 02:31:00,VALID,915.642,VALID,0,VALID,100,VALID,-0.0169808,VALID,19.6491,VALID,144,VALID,1.35268,
2008-08-11, 02:32:00,VALID,915.645,VALID,0,VALID,100,VALID,-0.0509425,VALID,19.6519,VALID,146,VALID,0.920351,
2008-08-11, 02:33:00,VALID,915.612,VALID,0,VALID,100,VALID,-0.0169808,VALID,19.6751,VALID,135,VALID,1.29851,
2008-08-11, 02:34:00,VALID,915.608,VALID,0,VALID,100,VALID,-0.0169808,VALID,19.6811,VALID,160,VALID,0.909624,
2008-08-11, 02:35:00,VALID,915.594,VALID,0,VALID,100,VALID,-0.0169808,VALID,19.6878,VALID,163,VALID,1.175,
2008-08-11, 02:36:00,VALID,915.587,VALID,0,VALID,100,VALID,0,VALID,19.6948,VALID,172,VALID,0.807235,
2008-08-11, 02:37:00,VALID,915.583,VALID,0,VALID,100,VALID,0,VALID,19.7041,VALID,169,VALID,0.00533537,
2008-08-11, 02:38:00,VALID,915.597,VALID,0,VALID,100,VALID,0,VALID,19.7105,VALID,169,VALID,0,
2008-08-11, 02:39:00,VALID,915.635,VALID,0,VALID,100,VALID,0.0339617,VALID,19.71,VALID,169,VALID,0,
2008-08-11, 02:40:00,VALID,915.675,VALID,0,VALID,100,VALID,-0.0169808,VALID,19.7108,VALID,224,VALID,0.185976,
2008-08-11, 02:41:00,VALID,915.702,VALID,0,VALID,100,VALID,0,VALID,19.7108,VALID,255,VALID,0.284375,
2008-08-11, 02:42:00,VALID,915.71,VALID,0,VALID,100,VALID,0,VALID,19.7011,VALID,255,VALID,0,
2008-08-11, 02:43:00,VALID,915.726,VALID,0,VALID,100,VALID,-0.0169808,VALID,19.6746,VALID,269,VALID,0,
2008-08-11, 02:44:00,VALID,915.727,VALID,0,VALID,100,VALID,-0.0169808,VALID,19.6524,VALID,274,VALID,0,
2008-08-11, 02:45:00,VALID,915.724,VALID,0,VALID,100,VALID,0,VALID,19.6294,VALID,275,VALID,0,
2008-08-11, 02:46:00,VALID,915.729,VALID,0,VALID,100,VALID,0,VALID,19.6232,VALID,275,VALID,0,
2008-08-11, 02:47:00,VALID,915.737,VALID,0,VALID,100,VALID,0,VALID,19.6037,VALID,287,VALID,0,
2008-08-11, 02:48:00,VALID,915.73,VALID,0,VALID,100,VALID,-0.0169808,VALID,19.6005,VALID,18,VALID,0,
2008-08-11, 02:49:00,VALID,915.731,VALID,0,VALID,100,VALID,-0.0169808,VALID,19.5683,VALID,26,VALID,0.742006,
2008-08-11, 02:50:00,VALID,915.739,VALID,0,VALID,100,VALID,-0.0169808,VALID,19.5421,VALID,26,VALID,0.511161,
2008-08-11, 02:51:00,VALID,915.74,VALID,0,VALID,100,VALID,-0.0169808,VALID,19.5423,VALID,26,VALID,0.00520833,
2008-08-11, 02:52:00,VALID,915.751,VALID,0,VALID,100,VALID,-0.0339617,VALID,19.5289,VALID,26,VALID,0,
2008-08-11, 02:53:00,VALID,915.741,VALID,0,VALID,100,VALID,-0.0509425,VALID,19.5094,VALID,359,VALID,0.0012718,
2008-08-11, 02:54:00,VALID,915.754,VALID,0,VALID,100,VALID,-0.0169808,VALID,19.4707,VALID,352,VALID,0,
2008-08-11, 02:55:00,VALID,915.75,VALID,0,VALID,100,VALID,-0.0169808,VALID,19.4612,VALID,351,VALID,0,
2008-08-11, 02:56:00,VALID,915.75,VALID,0,VALID,100,VALID,0,VALID,19.4675,VALID,347,VALID,0,
2008-08-11, 02:57:00,VALID,915.754,VALID,0,VALID,100,VALID,0.0169808,VALID,19.4934,VALID,338,VALID,0,
2008-08-11, 02:58:00,VALID,915.757,VALID,0,VALID,100,VALID,0.0169808,VALID,19.5064,VALID,338,VALID,0,
2008-08-11, 02:59:00,VALID,915.759,VALID,0,VALID,100,VALID,-0.0169808,VALID,19.5229,INVALID,360,VALID,0,
2008-08-11, 03:00:00,VALID,915.769,VALID,0,VALID,100,VALID,-0.0169808,VALID,19.5291,VALID,338,VALID,0,
2008-08-11, 03:01:00,VALID,915.77,VALID,0,VALID,100,VALID,0,VALID,19.5356,VALID,9,VALID,0,
2008-08-11, 03:02:00,VALID,915.768,VALID,0,VALID,100,VALID,-0.0169808,VALID,19.5456,VALID,12,VALID,0,
2008-08-11, 03:03:00,VALID,915.763,VALID,0,VALID,100,VALID,0,VALID,19.5324,VALID,20,VALID,0,
2008-08-11, 03:04:00,VALID,915.767,VALID,0,VALID,100,VALID,0,VALID,19.5124,VALID,24,VALID,0,
2008-08-11, 03:05:00,VALID,915.767,VALID,0,VALID,100,VALID,0,VALID,19.5066,VALID,27,VALID,0,
2008-08-11, 03:06:00,VALID,915.763,VALID,0,VALID,100,VALID,0,VALID,19.4934,VALID,27,VALID,0,
2008-08-11, 03:07:00,VALID,915.76,VALID,0,VALID,100,VALID,0,VALID,19.5094,VALID,27,VALID,0,
2008-08-11, 03:08:00,VALID,915.745,VALID,0,VALID,100,VALID,-0.0169808,VALID,19.5129,VALID,27,VALID,0,
2008-08-11, 03:09:00,VALID,915.728,VALID,0,VALID,100,VALID,0,VALID,19.5024,VALID,27,VALID,0,
2008-08-11, 03:10:00,VALID,915.712,VALID,0,VALID,100,VALID,0,VALID,19.4932,VALID,27,VALID,0,
2008-08-11, 03:11:00,VALID,915.693,VALID,0,VALID,100,VALID,0,VALID,19.4832,VALID,27,VALID,0,
2008-08-11, 03:12:00,VALID,915.663,VALID,0,VALID,100,VALID,0,VALID,19.4605,VALID,27,VALID,0,
2008-08-11, 03:13:00,VALID,915.644,VALID,0,VALID,100,VALID,0,VALID,19.444,VALID,27,VALID,0,
2008-08-11, 03:14:00,VALID,915.632,VALID,0,VALID,100,VALID,0,VALID,19.4285,VALID,27,VALID,0,
2008-08-11, 03:15:00,VALID,915.62,VALID,0,VALID,100,VALID,-0.0169808,VALID,19.4091,VALID,28,VALID,0,
2008-08-11, 03:16:00,VALID,915.602,VALID,0,VALID,100,VALID,-0.0339617,VALID,19.3894,VALID,44,VALID,0,
2008-08-11, 03:17:00,VALID,915.586,VALID,0,VALID,100,VALID,0,VALID,19.3831,VALID,44,VALID,0.421697,
2008-08-11, 03:18:00,VALID,915.566,VALID,0,VALID,100,VALID,-0.0169808,VALID,19.3799,VALID,44,VALID,0.988758,
2008-08-11, 03:19:00,VALID,915.548,VALID,0,VALID,100,VALID,-0.0169808,VALID,19.318,VALID,44,VALID,0.968559,
2008-08-11, 03:20:00,VALID,915.51,VALID,0,VALID,100,VALID,-0.0339617,VALID,19.2536,VALID,44,VALID,0.795573,
2008-08-11, 03:21:00,VALID,915.486,VALID,0,VALID,100,VALID,-0.0339617,VALID,19.2144,VALID,44,VALID,0.708651,
2008-08-11, 03:22:00,VALID,915.46,VALID,0,VALID,100,VALID,-0.0509425,VALID,19.2052,VALID,41,VALID,0.734549,
2008-08-11, 03:23:00,VALID,915.449,VALID,0,VALID,100,VALID,-0.0339617,VALID,19.2112,VALID,19,VALID,0.331214,
2008-08-11, 03:24:00,VALID,915.439,VALID,0,VALID,100,VALID,-0.0169808,VALID,19.2047,VALID,13,VALID,0.00177557,
2008-08-11, 03:25:00,VALID,915.422,VALID,0,VALID,100,VALID,0,VALID,19.2107,VALID,13,VALID,0.535156,
2008-08-11, 03:26:00,VALID,915.414,VALID,0,VALID,100,VALID,0,VALID,19.2434,VALID,22,VALID,0.0210193,
2008-08-11, 03:27:00,VALID,915.415,VALID,0,VALID,100,VALID,0,VALID,19.2564,VALID,48,VALID,0.321948,
2008-08-11, 03:28:00,VALID,915.41,VALID,0,VALID,100,VALID,0,VALID,19.2756,VALID,44,VALID,0.593023,
2008-08-11, 03:29:00,VALID,915.416,VALID,0,VALID,100,VALID,-0.0169808,VALID,19.2858,VALID,41,VALID,0.546317,
2008-08-11, 03:30:00,VALID,915.411,VALID,0,VALID,100,VALID,0,VALID,19.315,VALID,41,VALID,0.0745739,
2008-08-11, 03:31:00,VALID,915.411,VALID,0,VALID,100,VALID,-0.0339617,VALID,19.3345,VALID,41,VALID,0,
2008-08-11, 03:32:00,VALID,915.401,VALID,0,VALID,100,VALID,0,VALID,19.3567,VALID,41,VALID,0,
2008-08-11, 03:33:00,VALID,915.402,VALID,0,VALID,100,VALID,0,VALID,19.3896,VALID,41,VALID,0,
2008-08-11, 03:34:00,VALID,915.4,VALID,0,VALID,100,VALID,0.0169808,VALID,19.4088,VALID,41,VALID,0,
2008-08-11, 03:35:00,VALID,915.39,VALID,0,VALID,100,VALID,-0.0339617,VALID,19.4251,VALID,41,VALID,0,
2008-08-11, 03:36:00,VALID,915.404,VALID,0,VALID,100,VALID,-0.0169808,VALID,19.4545,VALID,26,VALID,0,
2008-08-11, 03:37:00,VALID,915.412,VALID,0,VALID,100,VALID,-0.0339617,VALID,19.4445,VALID,13,VALID,0.135764,
2008-08-11, 03:38:00,VALID,915.417,VALID,0,VALID,100,VALID,0,VALID,19.4707,VALID,13,VALID,0,
2008-08-11, 03:39:00,VALID,915.411,VALID,0,VALID,100,VALID,-0.0339617,VALID,19.4575,VALID,19,VALID,0.149639,
2008-08-11, 03:40:00,VALID,915.416,VALID,0,VALID,100,VALID,0,VALID,19.4158,VALID,19,VALID,0,
2008-08-11, 03:41:00,VALID,915.432,VALID,0,VALID,100,VALID,-0.0339617,VALID,19.4253,VALID,57,VALID,0,
2008-08-11, 03:42:00,VALID,915.425,VALID,0,VALID,100,VALID,-0.0339617,VALID,19.4318,VALID,50,VALID,0,
2008-08-11, 03:43:00,VALID,915.423,VALID,0,VALID,100,VALID,-0.0339617,VALID,19.4285,VALID,50,VALID,0,
2008-08-11, 03:44:00,VALID,915.41,VALID,0,VALID,100,VALID,-0.0509425,VALID,19.4158,VALID,51,VALID,0,